GFSNE_850_spd_336.txt.gz
Wind_Speed
27 22 19 20 20 19 19 21 21 24 27 18 8 4 5 4 5 6 5 6 9 13 18 28 32 35 36 37 35 32 28 25 23 23 24 24 23 23
26 22 19 20 20 20 19 20 21 22 26 20 14 12 10 9 9 10 7 7 6 8 14 19 29 33 34 37 37 37 34 31 28 26 25 26 26 25
17 19 21 22 20 21 20 21 23 22 26 24 17 12 11 11 9 10 11 10 7 7 9 15 21 29 33 36 36 37 37 36 34 32 29 28 27 27
14 16 21 20 21 23 23 24 24 23 24 27 20 15 12 12 12 11 10 11 9 8 7 8 15 23 29 33 34 38 39 39 38 37 35 33 31 31
11 16 19 17 20 20 22 22 23 22 21 24 26 19 14 13 12 11 10 9 9 8 8 5 7 15 23 24 26 30 33 35 37 39 39 36 35 34
22 19 23 26 24 24 24 23 22 21 19 20 22 24 18 14 13 11 10 7 8 9 9 8 5 8 7 15 17 24 28 29 31 35 39 39 37 36
25 26 27 27 23 22 24 22 20 20 20 23 20 25 22 17 14 11 12 11 9 9 11 11 10 10 11 10 4 5 18 24 27 31 36 39 40 41
21 18 16 20 23 22 20 17 15 18 23 24 24 26 25 17 13 13 12 13 11 8 9 10 11 12 13 13 16 19 17 17 18 23 28 32 34 35
12 13 19 19 16 18 16 14 15 15 22 21 22 27 28 21 15 15 16 15 12 10 10 13 13 13 13 12 11 11 14 19 21 21 21 23 25 27
13 13 17 11 7 6 9 11 14 15 16 17 21 25 27 21 19 17 15 15 16 16 14 16 13 14 14 14 14 15 14 18 18 18 20 21 21 22
17 18 18 12 6 9 14 13 14 17 17 16 19 20 22 18 18 19 19 19 21 20 17 18 16 12 11 11 12 14 19 21 23 22 23 25 26 25
23 23 21 17 15 16 19 16 12 8 12 11 8 23 24 19 19 20 20 22 21 21 19 21 15 11 10 11 6 7 13 19 23 25 28 27 29 29
30 30 25 19 17 16 16 18 20 20 18 17 26 25 20 18 18 17 20 20 22 22 21 18 17 14 14 15 15 13 13 15 17 21 24 25 26 28
33 33 31 29 22 20 20 19 16 19 20 17 14 14 12 12 17 21 19 22 18 16 17 20 23 20 19 19 18 17 16 17 19 20 20 16 13 15
33 33 32 32 31 28 23 22 22 22 21 20 16 14 12 12 11 12 18 24 24 24 20 20 19 19 18 22 22 20 19 17 16 17 20 21 20 19
28 29 32 32 32 32 31 27 27 27 27 25 22 15 12 15 17 17 17 15 19 21 23 21 21 19 18 22 23 21 16 12 10 11 12 17 23 20
30 28 28 28 29 30 30 31 31 30 32 31 27 19 14 14 15 18 19 16 16 16 16 21 23 22 23 24 23 17 15 14 13 11 10 12 13 13
33 35 33 31 32 33 32 30 30 28 31 33 32 24 17 14 16 18 21 20 18 17 17 19 21 25 26 24 20 15 14 14 13 11 9 8 8 9
33 33 36 35 32 30 30 36 36 31 26 29 33 29 22 18 18 20 22 23 21 19 18 18 20 27 27 25 19 17 15 13 13 12 10 10 9 9
36 38 36 35 33 32 31 31 31 36 34 30 29 33 29 26 25 24 25 25 22 20 19 19 21 25 26 22 20 16 15 13 14 13 14 14 12 11
35 34 33 32 32 32 30 34 30 32 33 32 31 32 32 34 32 29 28 26 23 22 21 19 20 20 21 19 19 17 16 16 14 13 15 14 13 14
35 32 30 31 31 31 30 31 34 30 30 29 30 31 34 35 35 34 32 30 26 25 23 19 19 22 24 24 21 20 19 19 18 18 13 13 13 14
30 30 26 26 24 23 25 23 25 26 26 26 28 30 32 34 35 36 33 31 27 25 25 23 22 23 23 23 22 23 21 21 19 17 16 13 10 8

GFSNE_850_spd_339.txt.gz
Wind_Speed
23 22 22 23 19 18 19 21 20 17 16 13 13 9 8 8 8 9 10 11 13 14 20 26 30 33 36 39 37 33 29 27 27 26 26 26 26 25
28 26 21 20 18 17 19 20 22 22 21 22 16 16 15 13 13 13 13 13 12 12 13 19 27 32 35 38 41 40 36 32 29 27 27 26 26 26
6 7 12 15 17 17 18 19 22 21 26 25 22 18 17 14 14 14 15 17 15 13 13 12 19 28 34 38 39 43 42 39 36 32 29 28 28 28
7 7 7 11 16 13 16 20 20 20 23 25 22 21 18 16 16 16 16 17 17 16 15 13 11 18 25 33 39 40 43 43 41 39 37 34 32 31
13 12 16 15 11 15 17 17 18 18 22 23 23 21 17 16 17 18 18 19 18 17 15 14 9 10 18 27 35 39 39 42 42 42 41 40 39 37
18 18 19 22 22 21 22 22 23 23 24 24 23 20 16 16 20 19 19 19 17 17 16 15 13 9 10 14 25 34 32 39 42 42 42 43 43 42
23 22 22 19 18 20 23 23 20 22 23 24 22 21 20 20 20 19 20 18 18 17 15 17 18 14 13 9 15 17 22 28 33 36 37 39 42 43
21 20 17 11 20 22 20 20 19 19 18 21 19 21 21 20 15 21 20 20 17 18 18 17 20 19 17 17 16 13 8 12 23 29 30 31 34 37
18 15 11 11 13 13 13 14 15 16 16 18 21 20 22 17 15 18 24 23 19 15 15 13 17 20 18 17 16 15 15 20 22 22 23 25 28 31
20 16 15 9 9 11 10 10 12 13 14 16 17 18 19 18 16 20 22 26 23 20 19 15 18 19 20 20 19 19 19 19 21 23 24 26 26 26
20 20 20 18 14 15 16 14 13 12 13 14 12 14 18 18 25 15 20 25 24 20 21 19 17 17 17 18 18 20 21 22 22 22 24 24 24 25
24 23 23 24 19 18 21 21 22 16 14 10 12 12 11 13 14 17 21 25 23 19 18 20 17 13 13 17 18 17 18 21 23 25 26 26 26 27
30 29 29 28 25 23 23 24 23 18 23 24 19 15 9 15 20 15 23 25 24 20 18 19 15 16 14 10 14 15 15 16 17 18 22 25 27 29
32 31 31 33 29 27 27 26 25 23 23 23 21 20 14 14 12 13 19 24 24 22 18 20 17 17 18 17 16 17 18 18 17 18 20 20 18 16
30 32 32 33 35 34 31 29 28 28 28 27 24 22 18 17 15 15 11 13 18 25 27 26 26 22 21 22 19 20 16 17 17 18 20 20 20 20
24 24 30 31 33 34 34 33 30 31 32 31 29 27 25 23 20 16 13 11 14 18 21 26 30 30 27 23 22 18 22 13 16 15 16 19 21 18
33 31 28 26 26 30 32 33 33 30 32 33 32 31 30 28 26 20 16 14 14 14 16 17 20 28 30 29 26 23 20 18 19 18 17 16 17 19
32 30 29 28 27 27 27 25 25 32 32 29 29 30 29 28 29 25 20 18 15 16 17 18 19 22 29 35 32 22 23 20 19 17 17 15 17 16
36 34 30 29 29 27 27 29 28 26 27 31 29 26 25 26 28 22 22 21 19 19 18 19 21 21 25 33 33 32 18 19 19 19 15 12 11 15
39 35 31 28 27 27 28 28 29 27 26 25 26 27 26 25 27 24 22 20 20 20 21 20 22 24 28 31 28 28 26 18 18 17 18 17 19 16
29 30 28 28 28 27 26 26 29 27 27 26 25 26 28 28 28 28 26 26 25 23 25 25 24 21 22 27 22 20 24 24 20 19 21 22 22 22
27 29 30 30 27 25 24 25 26 26 25 27 27 23 24 27 27 27 27 26 25 29 28 21 22 21 22 29 22 19 24 26 24 20 20 24 22 23
33 31 29 27 27 25 24 25 27 27 25 26 29 28 25 26 24 24 25 25 24 24 24 24 20 23 24 28 24 26 26 28 28 26 22 21 18 18

GFSNE_850_spd_342.txt.gz
Wind_Speed
23 24 20 16 18 20 16 15 13 10 11 9 8 13 11 11 10 11 12 15 16 20 23 26 30 32 36 40 40 38 37 32 30 30 30 30 29 28
16 16 19 17 18 17 17 14 15 14 13 10 13 10 12 12 15 14 15 15 17 18 19 20 24 30 34 36 40 42 39 36 33 32 31 31 30 30
10 10 5 7 10 12 16 15 17 18 17 14 14 13 15 17 16 17 16 16 19 21 20 20 19 24 30 34 37 39 43 42 37 34 32 32 32 31
10 5 6 2 7 11 14 16 20 21 19 18 15 16 14 16 20 19 16 16 17 21 22 22 20 20 22 29 35 39 43 45 44 40 36 34 32 32
13 14 15 13 13 16 15 21 18 18 18 19 20 15 14 15 19 20 16 17 18 20 24 24 22 20 17 23 31 38 42 44 47 46 44 41 38 36
16 17 18 19 20 20 21 19 19 19 19 20 19 18 17 14 17 17 14 16 17 18 21 23 23 21 17 18 25 31 37 42 43 46 49 47 45 44
20 21 22 20 18 16 18 20 19 18 17 20 19 19 16 12 12 14 16 16 19 20 19 18 21 23 21 18 15 19 31 34 40 43 45 49 48 47
19 18 19 22 17 16 17 17 15 18 18 18 20 18 19 21 19 16 17 16 19 17 20 22 18 20 20 20 18 14 12 23 31 33 39 42 44 45
18 19 16 15 18 16 16 13 12 12 15 16 18 17 18 17 21 20 22 19 19 21 17 20 20 22 20 21 21 19 20 19 16 18 29 33 36 39
20 20 20 19 19 14 14 13 12 12 12 15 17 15 14 16 18 23 22 23 22 25 21 24 20 23 19 21 23 20 22 22 20 22 25 26 29 32
20 22 20 21 23 21 20 20 18 16 14 16 16 15 15 17 16 14 23 27 31 24 19 25 26 22 21 20 20 23 24 26 26 26 25 26 29 30
19 22 24 22 23 25 24 24 24 18 14 15 14 14 14 14 12 10 14 26 23 23 18 24 24 22 19 18 20 19 21 25 26 27 28 27 28 31
22 23 22 24 26 26 27 28 28 22 17 19 18 17 16 16 19 14 9 21 17 20 22 22 18 16 20 15 11 15 18 16 20 23 26 28 30 33
23 23 23 27 30 34 29 31 31 31 30 23 22 22 22 21 19 12 11 11 18 27 23 22 24 19 19 22 22 17 17 17 19 20 21 25 27 30
23 24 26 29 32 34 36 34 33 33 33 27 27 26 23 23 23 22 21 21 20 21 21 22 29 25 26 26 24 23 22 18 19 21 19 21 24 26
24 23 22 25 27 29 32 32 30 31 29 31 30 28 25 24 24 22 21 22 23 21 20 20 22 28 28 26 27 26 25 23 17 19 20 23 19 24
30 31 29 30 30 28 27 27 25 26 27 29 30 29 29 28 28 25 25 23 22 20 19 19 20 23 25 28 28 29 24 27 24 19 22 25 24 22
39 32 31 29 29 28 28 28 28 27 27 29 29 30 32 32 30 28 27 26 27 25 22 20 21 21 25 26 32 33 26 24 24 25 22 18 16 17
40 33 33 33 32 31 29 28 28 28 29 29 28 30 32 33 32 33 31 30 30 29 26 23 23 23 25 30 29 29 34 36 26 27 20 18 17 18
27 26 28 31 34 33 31 30 28 27 28 31 31 30 31 33 34 34 34 34 33 32 30 27 24 23 24 25 20 24 26 29 30 26 20 22 23 23
24 25 27 28 30 30 33 32 30 29 27 28 31 31 31 30 34 33 35 36 35 34 33 30 27 26 21 21 24 26 24 23 30 25 27 23 21 23
26 29 30 27 30 30 27 30 31 30 28 28 30 29 29 30 31 33 34 32 34 34 32 31 28 23 25 25 26 25 25 25 32 27 27 24 23 20
27 28 32 33 34 36 37 30 32 30 28 27 29 30 28 32 29 28 30 32 31 31 30 29 26 27 27 26 24 23 25 25 33 34 32 28 25 23

GFSNE_850_spd_345.txt.gz
Wind_Speed
13 15 22 27 22 19 15 16 17 17 20 14 11 10 13 9 12 14 14 11 12 17 19 22 25 29 32 34 41 45 41 36 33 27 28 31 31 30
10 14 15 12 14 12 10 11 14 13 24 17 13 14 11 11 13 14 15 16 15 16 18 20 21 24 28 32 35 40 43 43 41 39 32 30 31 31
10 10 12 8 6 5 9 12 14 13 18 23 15 17 19 18 16 15 14 17 18 18 20 19 20 22 23 28 31 37 39 42 42 42 40 34 33 33
13 13 9 5 4 4 7 11 16 20 22 27 23 20 19 19 17 18 15 16 18 19 21 18 20 21 22 23 27 33 37 39 44 45 42 38 35 35
15 16 17 16 15 17 19 15 15 17 19 21 22 16 17 18 15 17 18 17 19 20 22 22 22 22 23 23 23 27 34 38 40 44 45 42 38 35
16 18 18 18 20 19 18 18 19 17 19 22 23 20 18 17 18 14 18 19 16 21 20 21 21 19 23 23 24 25 30 36 40 42 46 47 44 41
19 19 19 21 21 23 21 19 19 21 18 19 22 24 20 19 20 16 18 18 17 18 23 21 22 22 19 24 25 24 25 29 35 39 44 46 47 46
19 20 19 20 23 22 20 18 19 18 19 17 17 19 19 18 21 24 22 16 20 21 17 18 16 20 18 22 20 23 21 20 23 30 36 42 46 48
20 18 20 17 18 22 25 19 17 16 16 16 19 16 16 15 18 21 23 24 24 20 21 23 17 22 21 19 26 24 22 20 15 19 28 34 39 44
17 19 20 21 20 19 17 17 15 15 17 17 18 19 18 18 21 21 22 25 27 24 20 26 21 21 19 22 23 27 24 25 25 23 19 20 25 31
19 20 22 23 22 21 25 28 25 22 16 19 22 23 24 18 18 13 17 19 22 20 19 23 20 19 21 25 24 26 26 25 28 28 25 23 20 22
22 23 23 28 26 23 25 25 31 29 16 17 22 25 24 21 19 21 19 19 22 23 28 19 17 18 29 24 26 29 28 28 27 31 29 27 24 27
19 20 20 24 18 15 21 25 30 29 25 22 21 22 22 21 22 22 21 23 18 17 11 15 18 22 27 30 25 24 21 30 26 27 30 29 28 30
20 20 20 24 26 28 29 32 32 32 33 28 27 27 27 28 27 26 22 24 25 20 15 12 10 16 15 28 35 19 35 29 15 24 23 26 26 26
17 18 23 22 23 30 37 38 39 40 37 32 31 32 31 31 28 30 30 28 25 23 29 24 23 22 26 32 31 31 26 23 18 21 18 21 20 21
22 23 23 24 26 28 29 29 31 33 28 29 33 35 33 32 32 30 29 28 27 29 32 29 27 26 28 29 31 28 25 22 13 13 18 15 20 21
38 38 34 33 33 32 31 31 31 30 30 29 33 36 33 34 34 32 33 29 29 30 28 26 28 28 27 25 23 24 26 26 25 22 22 24 22 21
43 35 34 33 34 33 33 32 30 30 32 33 30 31 31 34 33 34 33 33 33 31 30 27 25 23 25 27 27 27 26 29 28 25 26 26 26 24
36 28 27 27 29 32 34 36 35 33 30 30 31 32 33 32 34 37 35 35 36 33 34 31 30 27 26 23 29 25 25 27 26 31 29 27 27 24
25 28 27 27 27 28 28 31 33 34 33 31 31 33 31 32 34 35 35 41 32 28 36 39 37 36 34 32 25 20 23 23 23 27 33 30 29 26
30 29 27 27 27 27 27 30 28 27 33 31 31 30 32 34 32 34 37 34 37 38 35 42 36 29 36 30 26 27 26 28 25 24 24 32 33 29
30 30 30 28 29 27 29 31 30 34 29 29 33 30 34 30 35 34 34 35 37 36 38 31 37 38 34 31 36 24 22 27 21 22 26 29 27 31
31 33 36 34 30 28 28 31 33 34 35 29 28 32 33 34 34 32 31 31 32 32 33 39 39 26 34 28 26 23 26 27 24 20 27 32 29 28